Le nostre stazioni meteo in Italia

Pubblicità
Il mio iltempo24.it
Latina, Italia (16243): Temperatura & dewpoint: 11.02.2019 14:00:00 - 17.02.2019 14:00:00 (CET)Latina, Italia (16243): velocità del vento: 11.02.2019 14:00:00 - 17.02.2019 14:00:00 (CET)Latina, Italia (16243): direzione del vento: 11.02.2019 14:00:00 - 17.02.2019 14:00:00 (CET)Latina, Italia (16243): reduced air pressure: 11.02.2019 14:00:00 - 17.02.2019 14:00:00 (CET)Latina, Italia (16243): visibility: 11.02.2019 14:00:00 - 17.02.2019 14:00:00 (CET)
Data & Tempo tt [°C] td [°C] ff [km/h] ff [kn] dd ppp [hPa] vv [km]
17.02.2019 14:00:00 - - - - - - -
17.02.2019 13:00:00 - - - - - - -
17.02.2019 12:00:00 - - - - - - -
17.02.2019 11:00:00 - - - - - - -
17.02.2019 10:00:00 - - - - - - -
17.02.2019 09:00:00 - - - - - - -
17.02.2019 08:00:00 - - - - - - -
17.02.2019 07:00:00 - - - - - - -
17.02.2019 06:00:00 - - - - - - -
17.02.2019 05:00:00 - - - - - - -
17.02.2019 04:00:00 - - - - - - -
17.02.2019 03:00:00 - - - - - - -
17.02.2019 02:00:00 - - - - - - -
17.02.2019 01:00:00 - - - - - - -
17.02.2019 00:00:00 - - - - - - -
16.02.2019 23:00:00 - - - - - - -
16.02.2019 22:00:00 - - - - - - -
16.02.2019 21:00:00 - - - - - - -
16.02.2019 20:00:00 - - - - - - -
16.02.2019 19:00:00 - - - - - - -
16.02.2019 18:00:00 - - - - - - -
16.02.2019 17:00:00 - - - - - - -
16.02.2019 16:00:00 - - - - - - -
16.02.2019 15:00:00 - - - - - - -
16.02.2019 14:00:00 - - - - - - -
16.02.2019 13:00:00 - - - - - - -
16.02.2019 12:00:00 - - - - - - -
16.02.2019 11:00:00 - - - - - - -
16.02.2019 10:00:00 - - - - - - -
16.02.2019 09:00:00 - - - - - - -
16.02.2019 08:00:00 - - - - - - -
16.02.2019 07:00:00 - - - - - - -
16.02.2019 06:00:00 - - - - - - -
16.02.2019 05:00:00 - - - - - - -
16.02.2019 04:00:00 - - - - - - -
16.02.2019 03:00:00 - - - - - - -
16.02.2019 02:00:00 - - - - - - -
16.02.2019 01:00:00 - - - - - - -
16.02.2019 00:00:00 - - - - - - -
15.02.2019 23:00:00 - - - - - - -
15.02.2019 22:00:00 - - - - - - -
15.02.2019 21:00:00 - - - - - - -
15.02.2019 20:00:00 - - - - - - -
15.02.2019 19:00:00 11,0 6,6 4 2 N 1025,6 15
15.02.2019 18:00:00 12,0 7,0 5 3 S - 10
15.02.2019 17:00:00 13,0 7,0 8 4 S - 10
15.02.2019 16:00:00 13,0 5,2 9 5 S 1024,9 15
15.02.2019 15:00:00 12,0 4,0 8 4 S - 10
15.02.2019 14:00:00 14,0 4,0 11 6 SSO - 10
15.02.2019 13:00:00 14,4 2,6 11 6 S 1026,5 15
15.02.2019 12:00:00 15,0 3,0 8 4 S - 10
15.02.2019 11:00:00 15,0 5,0 9 5 SSE - 10
15.02.2019 10:00:00 12,4 9,1 5 3 SSE 1027,5 15
15.02.2019 09:00:00 8,0 4,0 4 2 E - 10
15.02.2019 08:00:00 3,0 0,0 5 3 NO - 10
15.02.2019 07:00:00 3,0 0,6 4 2 NNE 1027,7 15
15.02.2019 06:00:00 - - - - - - -
15.02.2019 05:00:00 - - - - - - -
15.02.2019 04:00:00 - - - - - - -
15.02.2019 03:00:00 - - - - - - -
15.02.2019 02:00:00 - - - - - - -
15.02.2019 01:00:00 - - - - - - -
15.02.2019 00:00:00 - - - - - - -
14.02.2019 23:00:00 - - - - - - -
14.02.2019 22:00:00 - - - - - - -
14.02.2019 21:00:00 - - - - - - -
14.02.2019 20:00:00 - - - - - - -
14.02.2019 19:00:00 10,4 6,2 4 2 ENE 1030,3 10
14.02.2019 18:00:00 12,0 5,0 8 4 SO - 10
14.02.2019 17:00:00 14,0 4,0 11 6 OSO - 10
14.02.2019 16:00:00 16,0 4,1 11 6 SSO 1030,3 20
14.02.2019 15:00:00 17,0 2,0 5 3 O - 10
14.02.2019 14:00:00 16,0 2,0 5 3 S - 10
14.02.2019 13:00:00 15,4 2,6 4 2 SSE 1031,4 20
14.02.2019 12:00:00 14,0 3,0 8 4 SSE - 10
14.02.2019 11:00:00 14,0 6,0 4 2 SSE - 10
14.02.2019 10:00:00 8,8 4,8 2 1 OSO 1031,9 15
14.02.2019 09:00:00 6,0 3,0 4 2 ONO - 10
14.02.2019 08:00:00 3,0 1,0 4 2 NNO - 10
14.02.2019 07:00:00 2,6 -0,5 4 2 NNO 1031,1 20
14.02.2019 06:00:00 - - - - - - -
14.02.2019 05:00:00 - - - - - - -
14.02.2019 04:00:00 - - - - - - -
14.02.2019 03:00:00 - - - - - - -
14.02.2019 02:00:00 - - - - - - -
14.02.2019 01:00:00 - - - - - - -
14.02.2019 00:00:00 - - - - - - -
13.02.2019 23:00:00 - - - - - - -
13.02.2019 22:00:00 - - - - - - -
13.02.2019 21:00:00 - - - - - - -
13.02.2019 20:00:00 - - - - - - -
13.02.2019 19:00:00 11,8 -3,5 8 4 NE 1029,5 15
13.02.2019 18:00:00 12,0 -4,0 11 6 ONO - 10
13.02.2019 17:00:00 15,0 -4,0 16 9 NO - 10
13.02.2019 16:00:00 15,0 -3,8 16 9 NNO 1029,3 25
13.02.2019 15:00:00 15,0 -3,0 11 6 NNE - 10
13.02.2019 14:00:00 14,0 -4,0 9 5 O - 10
13.02.2019 13:00:00 13,4 -3,0 9 5 OSO 1030,4 25
13.02.2019 12:00:00 14,0 -2,0 9 5 S - 10
13.02.2019 11:00:00 13,0 -2,0 5 3 S - 10
13.02.2019 10:00:00 11,0 -1,4 8 4 ONO 1030,5 25
13.02.2019 09:00:00 9,0 0,0 5 3 OSO - 10
13.02.2019 08:00:00 5,0 -3,0 13 7 NNO - 10
13.02.2019 07:00:00 4,0 -3,5 13 7 NNO 1029,3 25
13.02.2019 06:00:00 - - - - - - -
13.02.2019 05:00:00 - - - - - - -
13.02.2019 04:00:00 - - - - - - -
13.02.2019 03:00:00 - - - - - - -
13.02.2019 02:00:00 - - - - - - -
13.02.2019 01:00:00 - - - - - - -
13.02.2019 00:00:00 - - - - - - -
12.02.2019 23:00:00 - - - - - - -
12.02.2019 22:00:00 - - - - - - -
12.02.2019 21:00:00 - - - - - - -
12.02.2019 20:00:00 - - - - - - -
12.02.2019 19:00:00 11,6 -8,8 8 4 NNE 1025,6 10
12.02.2019 18:00:00 13,0 -8,0 11 6 NNO - 10
12.02.2019 17:00:00 15,0 -7,0 16 9 NNO - 10
12.02.2019 16:00:00 15,8 -5,3 21 11 NNO 1021,7 30
12.02.2019 15:00:00 16,0 -5,0 15 8 NO - 10
12.02.2019 14:00:00 15,0 -4,0 21 11 NNO - 10
12.02.2019 13:00:00 14,8 -4,0 15 8 NO 1021,3 30
12.02.2019 12:00:00 14,0 -5,0 15 8 NNO - 10
12.02.2019 11:00:00 13,0 -3,0 15 8 NNO - 10
12.02.2019 10:00:00 11,8 -2,4 15 8 ONO 1021,8 30
12.02.2019 09:00:00 10,0 -2,0 4 2 ENE - 10
12.02.2019 08:00:00 7,0 -3,0 8 4 NE - 10
12.02.2019 07:00:00 8,0 -3,2 16 9 NNO 1019,4 30
12.02.2019 06:00:00 - - - - - - -
12.02.2019 05:00:00 - - - - - - -
12.02.2019 04:00:00 - - - - - - -
12.02.2019 03:00:00 - - - - - - -
12.02.2019 02:00:00 - - - - - - -
12.02.2019 01:00:00 - - - - - - -
12.02.2019 00:00:00 - - - - - - -
11.02.2019 23:00:00 - - - - - - -
11.02.2019 22:00:00 - - - - - - -
11.02.2019 21:00:00 - - - - - - -
11.02.2019 20:00:00 - - - - - - -
11.02.2019 19:00:00 9,6 -0,9 26 14 N 1013,1 12
11.02.2019 18:00:00 10,0 4,0 11 6 NO - 10
11.02.2019 17:00:00 10,0 1,0 4 2 O - 10
11.02.2019 16:00:00 11,0 -2,4 13 7 N 1010,0 15
11.02.2019 15:00:00 13,0 2,0 13 7 N - 10
11.02.2019 14:00:00 12,0 4,0 15 8 NNO - 10

tt = Temperatura
td = dewpoint
ff = velocità del vento
dd = direzione del vento
ppp = reduced air pressure
vv = visibility

Stazioni seguenti

WeatherPro
AMSI
MeteoEarth